Home > Time Zones > World Clock > Weather > Spain > Cadiz > Past weeks

Flag for Spain Weather past 2 weeks in Cadiz, Cádiz, Spain

Now
63 °F

Passing clouds.


Feels Like: 63 °F
Forecast: 57 / 67 °F
Wind: 17 mph from East

Location: Rota Airport

Current Time: Apr 21, 2015 at 9:27:45 AM

Latest Report: Apr 21, 2015 at 9:00 AM


Visibility: N/A

Pressure: 30.01 "Hg

Humidity: 64%

Dew point: 50 °F

Location of CadizLocation

Historic Weather in Cadiz — Graph

°F

Cadiz temperature yesterday

Maximum temperature yesterday: 70 °F (at 2:00 PM)
Minimum temperature yesterday: 52 °F (at 7:00 AM)
Average temperature yesterday: 63 °F

Past Weeks' High & Low Weather Summary

 TemperatureHumidityPressure
High73 °F (Apr 13, 3:00 PM)100% (Apr 15, 4:00 AM)30.24 "Hg (Apr 15, 4:00 AM)
Low52 °F (Apr 12, 8:00 AM)44% (Apr 13, 7:00 PM)29.89 "Hg (Apr 6, 8:00 AM)
Average62 °F74%30.07 "Hg
* Reported Apr 6 8:00 AM — Apr 21 8:00 AM, Cadiz, Weather by CustomWeather, © 2015

Note: Actual official high and low records may vary slightly from our data, if they occured in-between our weather recording intervals... More about our weather records

Advertising

Cadiz weather history for previous 24 hours

 ConditionsComfort  
Time TempWeatherWind HumidityBarometerVisibility
8:00 AM
Tue, Apr 21
59 °FPassing clouds.10 mph63%30.01 "HgN/A
7:00 AM55 °FPassing clouds.6 mph67%30.01 "HgN/A
6:00 AM61 °FPassing clouds.9 mph45%29.98 "HgN/A
5:00 AM61 °FClear.9 mph48%29.98 "Hg10 mi
4:00 AM61 °FClear.12 mph45%30.01 "Hg10 mi
3:00 AM59 °FClear.9 mph55%30.01 "Hg10 mi
2:00 AM61 °FClear.12 mph52%30.01 "Hg10 mi
1:00 AM64 °FClear.15 mph46%30.01 "Hg10 mi
12:00 AM64 °FPassing clouds.15 mph49%30.04 "HgN/A
11:00 PM
Mon, Apr 20
64 °FPassing clouds.15 mph49%30.04 "HgN/A
10:00 PM66 °FPassing clouds.14 mph49%30.01 "HgN/A
9:00 PM64 °FSunny.2 mph78%30.01 "Hg10 mi
8:00 PM66 °FSunny.7 mph68%30.01 "Hg10 mi
7:00 PM68 °FPassing clouds.7 mph64%30.01 "HgN/A
6:00 PM68 °FPassing clouds.8 mph69%30.01 "HgN/A
5:00 PM68 °FPassing clouds.9 mph69%30.01 "HgN/A
4:00 PM68 °FPassing clouds.8 mph69%30.04 "HgN/A
3:00 PM70 °FPassing clouds.6 mph60%30.04 "HgN/A
2:00 PM70 °FPassing clouds.8 mph64%30.07 "HgN/A
1:00 PM68 °FSunny.2 mph60%30.07 "Hg10 mi
12:00 PM68 °FPassing clouds.3 mph60%30.07 "HgN/A
11:00 AM63 °FPassing clouds.6 mph68%30.07 "HgN/A
10:00 AM59 °FSunny.2 mph77%30.07 "Hg10 mi
9:00 AM54 °FSunny.2 mph88%30.07 "Hg10 mi
Weather by CustomWeather, © 2015

See weather overviewHow to use our weather pages